| time (UTC) | temp F | wind direction | speed MPH | gust MPH | rain 1hr in | rain 24hr in | rain mn in | humidity % | barometer mb |
| 20260507010110 | 48 | 14 | 0.0 | 0.0 | 0.00 | 0.61 | 0.61 | 97 | 1011.5 |
| 20260507005608 | 48 | 7 | 0.0 | 0.0 | 0.00 | 0.61 | 0.61 | 97 | 1011.3 |
| 20260507005104 | 48 | 25 | 0.0 | 1.0 | 0.00 | 0.61 | 0.61 | 97 | 1011.3 |
| 20260507004601 | 48 | 19 | 1.0 | 1.0 | 0.00 | 0.61 | 0.61 | 97 | 1011.3 |
| 20260507004058 | 48 | 25 | 0.0 | 0.0 | 0.00 | 0.61 | 0.61 | 97 | 1011.4 |
| 20260507003554 | 48 | 10 | 0.0 | 0.0 | 0.00 | 0.61 | 0.61 | 97 | 1011.2 |
| 20260507003049 | 48 | 11 | 0.0 | 0.0 | 0.00 | 0.61 | 0.61 | 97 | 1010.9 |
| 20260507002546 | 48 | 6 | 0.0 | 0.0 | 0.00 | 0.61 | 0.61 | 97 | 1010.9 |
| 20260507002042 | 48 | 6 | 0.0 | 0.0 | 0.00 | 0.61 | 0.61 | 97 | 1010.6 |
| 20260507001539 | 48 | 17 | 0.0 | 0.0 | 0.00 | 0.61 | 0.61 | 97 | 1010.6 |
| 20260507001036 | 48 | 27 | 0.0 | 0.0 | 0.00 | 0.61 | 0.61 | 97 | 1010.7 |
| 20260507000532 | 48 | 17 | 0.0 | 0.0 | 0.00 | 0.61 | 0.61 | 97 | 1010.7 |
| 20260507000028 | 48 | 4 | 0.0 | 0.0 | 0.00 | 0.61 | 0.61 | 97 | 1010.4 |
| 20260506235526 | 48 | 11 | 0.0 | 0.0 | 0.00 | 0.61 | 0.61 | 97 | 1010.3 |
| 20260506235021 | 48 | 64 | 1.0 | 1.0 | 0.00 | 0.61 | 0.61 | 97 | 1010.4 |
| 20260506234519 | 48 | 22 | 3.0 | 3.0 | 0.00 | 0.61 | 0.61 | 97 | 1010.3 |
| 20260506234016 | 48 | 21 | 0.0 | 0.0 | 0.00 | 0.61 | 0.61 | 97 | 1010.1 |
| 20260506233512 | 48 | 78 | 0.0 | 0.0 | 0.00 | 0.61 | 0.61 | 97 | 1010.4 |
| 20260506233010 | 48 | 16 | 0.0 | 1.0 | 0.00 | 0.61 | 0.61 | 97 | 1010.4 |
| 20260506232506 | 49 | 8 | 1.0 | 2.0 | 0.00 | 0.61 | 0.61 | 97 | 1010.3 |
| 20260506232001 | 49 | 13 | 0.0 | 0.0 | 0.00 | 0.61 | 0.61 | 97 | 1010.4 |
| 20260506231459 | 48 | 7 | 0.0 | 0.0 | 0.00 | 0.61 | 0.61 | 97 | 1010.3 |
| 20260506230957 | 49 | 10 | 1.0 | 1.0 | 0.00 | 0.61 | 0.61 | 97 | 1010.2 |
| 20260506230452 | 49 | 9 | 1.0 | 2.0 | 0.00 | 0.61 | 0.61 | 97 | 1010.2 |
| 20260506225949 | 49 | 8 | 0.0 | 0.0 | 0.00 | 0.61 | 0.61 | 97 | 1010.1 |
| 20260506225447 | 49 | 322 | 1.0 | 1.0 | 0.00 | 0.61 | 0.61 | 97 | 1010.1 |
| 20260506224943 | 49 | 20 | 1.0 | 2.0 | 0.00 | 0.61 | 0.61 | 97 | 1009.7 |
| 20260506224440 | 50 | 15 | 0.0 | 1.0 | 0.00 | 0.61 | 0.61 | 97 | 1009.7 |
| 20260506223937 | 50 | 26 | 1.0 | 5.0 | 0.00 | 0.61 | 0.61 | 97 | 1009.4 |
| 20260506223432 | 50 | 9 | 0.0 | 0.0 | 0.05 | 0.61 | 0.61 | 97 | 1009.2 |
| 20260506222930 | 50 | 10 | 0.0 | 0.0 | 0.05 | 0.61 | 0.61 | 97 | 1009.4 |
| 20260506222426 | 50 | 12 | 0.0 | 0.0 | 0.00 | 0.60 | 0.60 | 97 | 1009.1 |
| 20260506221923 | 50 | 11 | 0.0 | 0.0 | 0.00 | 0.60 | 0.60 | 97 | 1008.9 |
| 20260506221420 | 50 | 8 | 0.0 | 0.0 | 0.00 | 0.60 | 0.60 | 97 | 1009.1 |
| 20260506220918 | 50 | 344 | 0.0 | 1.0 | 0.00 | 0.60 | 0.60 | 97 | 1008.9 |
| 20260506220413 | 51 | 26 | 0.0 | 0.0 | 0.00 | 0.60 | 0.60 | 96 | 1008.6 |
| 20260506215910 | 51 | 11 | 0.0 | 0.0 | 0.12 | 0.60 | 0.60 | 96 | 1008.7 |
| 20260506215406 | 51 | 28 | 0.0 | 1.0 | 0.19 | 0.60 | 0.60 | 96 | 1008.7 |
| 20260506214902 | 51 | 352 | 0.0 | 1.0 | 0.24 | 0.59 | 0.59 | 96 | 1008.6 |
| 20260506214359 | 51 | 326 | 1.0 | 1.0 | 0.35 | 0.57 | 0.57 | 95 | 1008.3 |
| 20260506213857 | 51 | 10 | 0.0 | 0.0 | 0.17 | 0.54 | 0.54 | 95 | 1008.0 |
| 20260506213354 | 52 | 22 | 3.0 | 3.0 | 0.00 | 0.51 | 0.51 | 95 | 1008.0 |
| 20260506212852 | 52 | 39 | 1.0 | 1.0 | 0.00 | 0.51 | 0.51 | 95 | 1007.9 |
| 20260506212347 | 53 | 2 | 0.0 | 1.0 | 0.00 | 0.51 | 0.51 | 95 | 1007.4 |
| 20260506211842 | 54 | 13 | 1.0 | 1.0 | 0.00 | 0.51 | 0.51 | 94 | 1007.2 |
| 20260506211338 | 56 | 26 | 3.0 | 5.0 | 0.00 | 0.51 | 0.51 | 94 | 1006.9 |
| 20260506210836 | 57 | 22 | 1.0 | 1.0 | 0.07 | 0.51 | 0.51 | 94 | 1006.8 |
| 20260506210333 | 59 | 351 | 0.0 | 1.0 | 0.07 | 0.51 | 0.51 | 93 | 1006.7 |
| 20260506205830 | 62 | 332 | 3.0 | 3.0 | 0.07 | 0.51 | 0.51 | 93 | 1006.4 |
| 20260506205326 | 62 | 198 | 1.0 | 1.0 | 0.00 | 0.50 | 0.50 | 92 | 1006.5 |
| 20260506204823 | 62 | 54 | 1.0 | 2.0 | 0.00 | 0.50 | 0.50 | 92 | 1006.4 |
| 20260506204320 | 62 | 248 | 1.0 | 1.0 | 0.00 | 0.50 | 0.50 | 91 | 1006.1 |
| 20260506203818 | 62 | 194 | 2.0 | 3.0 | 0.00 | 0.50 | 0.50 | 91 | 1006.2 |
| 20260506203315 | 62 | 127 | 2.0 | 3.0 | 0.00 | 0.50 | 0.50 | 91 | 1006.0 |
| 20260506202812 | 63 | 6 | 0.0 | 0.0 | 0.00 | 0.50 | 0.50 | 91 | 1006.0 |
| 20260506202309 | 62 | 353 | 0.0 | 0.0 | 0.00 | 0.50 | 0.50 | 92 | 1006.0 |
| 20260506201805 | 63 | 277 | 3.0 | 3.0 | 0.00 | 0.50 | 0.50 | 92 | 1006.1 |
| 20260506201302 | 62 | 83 | 2.0 | 2.0 | 0.00 | 0.50 | 0.50 | 92 | 1006.2 |
| 20260506200800 | 62 | 295 | 1.0 | 2.0 | 0.00 | 0.50 | 0.50 | 93 | 1006.0 |
| 20260506200255 | 62 | 230 | 2.0 | 3.0 | 0.00 | 0.50 | 0.50 | 93 | 1006.2 |
| 20260506195752 | 62 | 210 | 3.0 | 5.0 | 0.00 | 0.50 | 0.50 | 93 | 1006.1 |
| 20260506195249 | 62 | 273 | 1.0 | 2.0 | 0.00 | 0.50 | 0.50 | 93 | 1006.4 |
| 20260506194746 | 62 | 214 | 3.0 | 3.0 | 0.00 | 0.50 | 0.50 | 93 | 1006.3 |
| 20260506194242 | 62 | 282 | 2.0 | 2.0 | 0.00 | 0.50 | 0.50 | 93 | 1006.2 |
| 20260506193740 | 62 | 329 | 1.0 | 1.0 | 0.00 | 0.50 | 0.50 | 93 | 1006.4 |
| 20260506193237 | 62 | 225 | 1.0 | 2.0 | 0.00 | 0.50 | 0.50 | 94 | 1006.5 |
| 20260506192733 | 61 | 103 | 1.0 | 2.0 | 0.00 | 0.50 | 0.50 | 94 | 1006.5 |
| 20260506192230 | 62 | 185 | 2.0 | 2.0 | 0.00 | 0.50 | 0.50 | 94 | 1006.6 |
| 20260506191727 | 62 | 179 | 3.0 | 3.0 | 0.00 | 0.50 | 0.50 | 95 | 1006.5 |
| 20260506191223 | 61 | 333 | 1.0 | 1.0 | 0.00 | 0.50 | 0.50 | 95 | 1006.7 |
| 20260506190720 | 61 | 12 | 0.0 | 1.0 | 0.00 | 0.50 | 0.50 | 96 | 1006.5 |
| 20260506190217 | 61 | 83 | 1.0 | 2.0 | 0.00 | 0.50 | 0.50 | 96 | 1006.5 |
| 20260506185715 | 60 | 241 | 0.0 | 2.0 | 0.00 | 0.50 | 0.50 | 96 | 1006.6 |
| 20260506185210 | 60 | 229 | 2.0 | 3.0 | 0.00 | 0.50 | 0.50 | 96 | 1006.5 |
| 20260506184708 | 60 | 123 | 1.0 | 3.0 | 0.00 | 0.50 | 0.50 | 97 | 1006.8 |
| 20260506184205 | 60 | 321 | 2.0 | 3.0 | 0.00 | 0.50 | 0.50 | 97 | 1006.6 |
| 20260506183701 | 60 | 318 | 3.0 | 3.0 | 0.00 | 0.50 | 0.50 | 97 | 1006.6 |
| 20260506183157 | 60 | 264 | 1.0 | 3.0 | 0.00 | 0.50 | 0.50 | 97 | 1006.6 |
| 20260506182655 | 60 | 350 | 1.0 | 1.0 | 0.00 | 0.50 | 0.50 | 97 | 1006.8 |
| 20260506182151 | 60 | 238 | 3.0 | 5.0 | 0.00 | 0.50 | 0.50 | 98 | 1006.7 |
| 20260506181644 | 60 | 227 | 2.0 | 2.0 | 0.00 | 0.50 | 0.50 | 98 | 1006.7 |
| 20260506181141 | 60 | 81 | 3.0 | 5.0 | 0.00 | 0.50 | 0.50 | 98 | 1006.7 |
| 20260506180638 | 60 | 257 | 2.0 | 2.0 | 0.00 | 0.50 | 0.50 | 98 | 1006.7 |
| 20260506180134 | 60 | 182 | 2.0 | 3.0 | 0.05 | 0.50 | 0.50 | 98 | 1006.9 |
| 20260506175631 | 59 | 161 | 1.0 | 2.0 | 0.05 | 0.50 | 0.50 | 98 | 1006.9 |
| 20260506175127 | 59 | 28 | 0.0 | 0.0 | 0.00 | 0.49 | 0.49 | 98 | 1007.0 |
| 20260506174626 | 59 | 354 | 0.0 | 1.0 | 0.00 | 0.49 | 0.49 | 98 | 1007.0 |
| 20260506174122 | 59 | 253 | 1.0 | 1.0 | 0.07 | 0.49 | 0.49 | 98 | 1006.8 |
| 20260506173620 | 60 | 335 | 0.0 | 1.0 | 0.12 | 0.49 | 0.49 | 98 | 1007.1 |
| 20260506173116 | 60 | 233 | 1.0 | 1.0 | 0.12 | 0.48 | 0.48 | 97 | 1007.0 |
| 20260506172614 | 59 | 337 | 0.0 | 1.0 | 0.12 | 0.47 | 0.47 | 97 | 1007.1 |
| 20260506172110 | 59 | 186 | 1.0 | 2.0 | 0.24 | 0.46 | 0.46 | 97 | 1007.0 |
| 20260506171607 | 60 | 306 | 0.0 | 1.0 | 0.19 | 0.45 | 0.45 | 97 | 1007.0 |
| 20260506171105 | 59 | 330 | 0.0 | 1.0 | 0.12 | 0.43 | 0.43 | 97 | 1007.2 |
| 20260506170601 | 60 | 296 | 2.0 | 3.0 | 0.12 | 0.42 | 0.42 | 97 | 1007.0 |
| 20260506170054 | 60 | 250 | 2.0 | 3.0 | 0.05 | 0.41 | 0.41 | 96 | 1007.1 |
| 20260506165552 | 59 | 332 | 1.0 | 2.0 | 0.07 | 0.40 | 0.40 | 96 | 1007.0 |
| 20260506165048 | 60 | 108 | 1.0 | 2.0 | 0.12 | 0.40 | 0.40 | 96 | 1007.1 |
| 20260506164545 | 60 | 352 | 0.0 | 0.0 | 0.05 | 0.39 | 0.39 | 96 | 1007.0 |
| 20260506164042 | 60 | 3 | 0.0 | 0.0 | 0.07 | 0.38 | 0.38 | 96 | 1007.1 |
| 20260506163538 | 60 | 3 | 0.0 | 0.0 | 0.07 | 0.38 | 0.38 | 96 | 1007.0 |
| 20260506163034 | 60 | 11 | 0.0 | 0.0 | 0.00 | 0.37 | 0.37 | 96 | 1006.9 |
| 20260506162530 | 60 | 224 | 3.0 | 5.0 | 0.05 | 0.37 | 0.37 | 96 | 1007.0 |
| 20260506162027 | 60 | 280 | 1.0 | 2.0 | 0.05 | 0.37 | 0.37 | 96 | 1006.8 |
| 20260506161525 | 60 | 5 | 0.0 | 0.0 | 0.00 | 0.36 | 0.36 | 96 | 1006.8 |
| 20260506161022 | 60 | 31 | 0.0 | 0.0 | 0.07 | 0.36 | 0.36 | 96 | 1006.9 |
| 20260506160520 | 59 | 108 | 2.0 | 2.0 | 0.07 | 0.36 | 0.36 | 96 | 1006.8 |
| 20260506160016 | 59 | 288 | 1.0 | 2.0 | 0.05 | 0.35 | 0.35 | 96 | 1006.8 |
| 20260506155514 | 59 | 33 | 0.0 | 1.0 | 0.17 | 0.35 | 0.35 | 96 | 1007.0 |
| 20260506153646 | 59 | 0 | 0.0 | 0.0 | 0.24 | 0.30 | 0.30 | 95 | 1007.3 |
| 20260506153143 | 59 | 38 | 0.0 | 1.0 | 0.17 | 0.28 | 0.28 | 95 | 1007.5 |
| 20260506152640 | 59 | 189 | 1.0 | 5.0 | 0.12 | 0.26 | 0.26 | 94 | 1007.4 |
| 20260506152138 | 59 | 35 | 0.0 | 1.0 | 0.19 | 0.25 | 0.25 | 94 | 1007.5 |
| 20260506151636 | 60 | 199 | 2.0 | 3.0 | 0.17 | 0.24 | 0.24 | 93 | 1007.7 |
| 20260506151133 | 60 | 243 | 2.0 | 2.0 | 0.12 | 0.22 | 0.22 | 93 | 1007.5 |
| 20260506150630 | 60 | 285 | 1.0 | 2.0 | 0.12 | 0.21 | 0.21 | 93 | 1007.3 |
| 20260506150126 | 60 | 202 | 3.0 | 3.0 | 0.12 | 0.20 | 0.20 | 93 | 1007.2 |
| 20260506145623 | 60 | 177 | 1.0 | 2.0 | 0.14 | 0.19 | 0.19 | 92 | 1007.4 |
| 20260506145120 | 60 | 226 | 5.0 | 6.0 | 0.12 | 0.18 | 0.18 | 91 | 1007.2 |
| 20260506144618 | 61 | 228 | 5.0 | 6.0 | 0.05 | 0.17 | 0.17 | 91 | 1007.2 |
| 20260506144114 | 60 | 182 | 3.0 | 3.0 | 0.07 | 0.16 | 0.16 | 91 | 1007.2 |
| 20260506143612 | 60 | 141 | 2.0 | 2.0 | 0.07 | 0.16 | 0.16 | 91 | 1007.2 |
| 20260506143110 | 60 | 223 | 2.0 | 2.0 | 0.00 | 0.15 | 0.15 | 92 | 1007.2 |
| 20260506142608 | 60 | 167 | 3.0 | 5.0 | 0.05 | 0.15 | 0.15 | 91 | 1007.2 |
| 20260506142106 | 60 | 161 | 2.0 | 3.0 | 0.12 | 0.15 | 0.15 | 92 | 1007.4 |
| 20260506141603 | 60 | 282 | 2.0 | 2.0 | 0.19 | 0.14 | 0.14 | 92 | 1007.4 |
| 20260506141101 | 60 | 198 | 2.0 | 2.0 | 0.12 | 0.13 | 0.13 | 92 | 1007.3 |
| 20260506140558 | 60 | 105 | 5.0 | 7.0 | 0.05 | 0.11 | 0.11 | 91 | 1007.4 |
| 20260506140056 | 59 | 96 | 2.0 | 3.0 | 0.05 | 0.11 | 0.11 | 92 | 1007.4 |
| 20260506135552 | 60 | 298 | 1.0 | 1.0 | 0.07 | 0.10 | 0.10 | 92 | 1007.3 |
| 20260506135048 | 60 | 156 | 2.0 | 2.0 | 0.12 | 0.10 | 0.10 | 92 | 1007.6 |
| 20260506134545 | 60 | 338 | 0.0 | 1.0 | 0.12 | 0.09 | 0.09 | 92 | 1007.9 |
| 20260506134041 | 60 | 290 | 1.0 | 1.0 | 0.12 | 0.08 | 0.08 | 92 | 1007.9 |
| 20260506133538 | 60 | 29 | 0.0 | 1.0 | 0.12 | 0.07 | 0.07 | 91 | 1007.8 |
| 20260506133035 | 60 | 304 | 0.0 | 0.0 | 0.07 | 0.06 | 0.06 | 91 | 1008.0 |
| 20260506132533 | 60 | 5 | 0.0 | 0.0 | 0.07 | 0.06 | 0.06 | 90 | 1008.0 |
| 20260506132030 | 60 | 330 | 1.0 | 1.0 | 0.07 | 0.05 | 0.05 | 90 | 1008.0 |
| 20260506131527 | 60 | 344 | 0.0 | 1.0 | 0.12 | 0.05 | 0.05 | 89 | 1008.0 |
| 20260506131023 | 60 | 357 | 0.0 | 0.0 | 0.05 | 0.04 | 0.04 | 89 | 1008.2 |
| 20260506130520 | 61 | 243 | 1.0 | 2.0 | 0.07 | 0.03 | 0.03 | 88 | 1008.6 |
| 20260506130018 | 61 | 223 | 3.0 | 3.0 | 0.12 | 0.03 | 0.03 | 87 | 1008.3 |
| 20260506125516 | 61 | 12 | 0.0 | 0.0 | 0.05 | 0.02 | 0.02 | 86 | 1008.2 |
| 20260506125013 | 61 | 329 | 0.0 | 1.0 | 0.07 | 0.01 | 0.01 | 85 | 1008.2 |
| 20260506124511 | 61 | 235 | 3.0 | 3.0 | 0.07 | 0.01 | 0.01 | 84 | 1008.1 |
| 20260506124009 | 62 | 133 | 2.0 | 3.0 | 0.00 | 0.00 | 0.00 | 82 | 1008.1 |
| 20260506123506 | 62 | 236 | 3.0 | 5.0 | 0.00 | 0.00 | 0.00 | 81 | 1007.8 |
| 20260506123004 | 62 | 273 | 3.0 | 5.0 | 0.00 | 0.00 | 0.00 | 79 | 1007.7 |
| 20260506122501 | 63 | 339 | 1.0 | 1.0 | 0.00 | 0.00 | 0.00 | 78 | 1007.6 |
| 20260506121959 | 63 | 11 | 1.0 | 1.0 | 0.00 | 0.00 | 0.00 | 77 | 1007.6 |
| 20260506121456 | 63 | 246 | 5.0 | 6.0 | 0.00 | 0.00 | 0.00 | 76 | 1007.7 |
| 20260506120952 | 64 | 179 | 2.0 | 3.0 | 0.00 | 0.00 | 0.00 | 74 | 1007.8 |
| 20260506120450 | 64 | 358 | 0.0 | 0.0 | 0.00 | 0.00 | 0.00 | 73 | 1007.8 |
| 20260506115947 | 64 | 225 | 3.0 | 5.0 | 0.00 | 0.00 | 0.00 | 72 | 1007.8 |
| 20260506115445 | 64 | 36 | 0.0 | 1.0 | 0.00 | 0.00 | 0.00 | 72 | 1007.8 |
| 20260506114943 | 64 | 313 | 1.0 | 2.0 | 0.00 | 0.00 | 0.00 | 71 | 1007.6 |
| 20260506114440 | 64 | 190 | 1.0 | 2.0 | 0.00 | 0.00 | 0.00 | 71 | 1007.8 |
| 20260506113939 | 64 | 135 | 2.0 | 3.0 | 0.00 | 0.00 | 0.00 | 70 | 1007.9 |
| 20260506113436 | 64 | 255 | 2.0 | 6.0 | 0.00 | 0.00 | 0.00 | 69 | 1007.9 |
| 20260506112932 | 64 | 197 | 1.0 | 3.0 | 0.00 | 0.00 | 0.00 | 69 | 1007.7 |
| 20260506112430 | 64 | 294 | 3.0 | 3.0 | 0.00 | 0.00 | 0.00 | 69 | 1007.6 |
| 20260506111927 | 64 | 185 | 2.0 | 3.0 | 0.00 | 0.00 | 0.00 | 69 | 1007.6 |
| 20260506111425 | 64 | 332 | 1.0 | 1.0 | 0.00 | 0.00 | 0.00 | 68 | 1007.3 |
| 20260506110922 | 64 | 155 | 2.0 | 2.0 | 0.00 | 0.00 | 0.00 | 69 | 1007.2 |
| 20260506110420 | 64 | 217 | 2.0 | 2.0 | 0.00 | 0.00 | 0.00 | 68 | 1007.4 |
| 20260506105916 | 64 | 202 | 3.0 | 3.0 | 0.00 | 0.00 | 0.00 | 68 | 1007.6 |
| 20260506105413 | 64 | 336 | 2.0 | 2.0 | 0.00 | 0.00 | 0.00 | 68 | 1007.3 |
| 20260506104910 | 64 | 252 | 2.0 | 2.0 | 0.00 | 0.00 | 0.00 | 68 | 1007.1 |
| 20260506104408 | 64 | 165 | 3.0 | 3.0 | 0.00 | 0.00 | 0.00 | 67 | 1007.1 |
| 20260506103906 | 65 | 179 | 2.0 | 3.0 | 0.00 | 0.00 | 0.00 | 66 | 1007.4 |
| 20260506103403 | 65 | 233 | 3.0 | 5.0 | 0.00 | 0.00 | 0.00 | 66 | 1006.9 |
| 20260506102900 | 65 | 54 | 3.0 | 3.0 | 0.00 | 0.00 | 0.00 | 64 | 1007.0 |
| 20260506102358 | 65 | 2 | 0.0 | 1.0 | 0.00 | 0.00 | 0.00 | 63 | 1007.0 |
| 20260506101855 | 65 | 268 | 2.0 | 3.0 | 0.00 | 0.00 | 0.00 | 63 | 1007.0 |
| 20260506101351 | 65 | 230 | 3.0 | 3.0 | 0.00 | 0.00 | 0.00 | 62 | 1007.1 |
| 20260506100849 | 65 | 273 | 1.0 | 1.0 | 0.00 | 0.00 | 0.00 | 62 | 1007.1 |
| 20260506100347 | 65 | 166 | 5.0 | 7.0 | 0.00 | 0.00 | 0.00 | 61 | 1006.9 |
| 20260506095845 | 65 | 248 | 2.0 | 2.0 | 0.00 | 0.00 | 0.00 | 61 | 1007.0 |
| 20260506095342 | 65 | 348 | 0.0 | 0.0 | 0.00 | 0.00 | 0.00 | 61 | 1007.0 |
| 20260506094838 | 65 | 339 | 0.0 | 0.0 | 0.00 | 0.00 | 0.00 | 61 | 1007.1 |
| 20260506094338 | 65 | 233 | 4.0 | 5.0 | 0.00 | 0.00 | 0.00 | 60 | 1007.1 |
| 20260506093835 | 65 | 289 | 2.0 | 2.0 | 0.00 | 0.00 | 0.00 | 60 | 1007.2 |
| 20260506093332 | 65 | 328 | 0.0 | 0.0 | 0.00 | 0.00 | 0.00 | 60 | 1007.3 |
| 20260506092830 | 64 | 309 | 2.0 | 2.0 | 0.00 | 0.00 | 0.00 | 60 | 1007.1 |
| 20260506092327 | 64 | 352 | 0.0 | 0.0 | 0.00 | 0.00 | 0.00 | 61 | 1007.2 |
| 20260506091824 | 65 | 7 | 0.0 | 1.0 | 0.00 | 0.00 | 0.00 | 59 | 1007.3 |
| 20260506091322 | 65 | 178 | 1.0 | 1.0 | 0.00 | 0.00 | 0.00 | 58 | 1007.1 |
| 20260506090819 | 65 | 156 | 2.0 | 3.0 | 0.00 | 0.00 | 0.00 | 58 | 1007.4 |
| 20260506090317 | 65 | 170 | 2.0 | 2.0 | 0.00 | 0.00 | 0.00 | 58 | 1007.3 |
| 20260506085813 | 65 | 226 | 3.0 | 3.0 | 0.00 | 0.00 | 0.00 | 57 | 1007.3 |
| 20260506085309 | 66 | 259 | 1.0 | 2.0 | 0.00 | 0.00 | 0.00 | 57 | 1007.4 |
| 20260506084806 | 66 | 10 | 0.0 | 1.0 | 0.00 | 0.00 | 0.00 | 57 | 1007.5 |
| 20260506084302 | 66 | 194 | 1.0 | 1.0 | 0.00 | 0.00 | 0.00 | 56 | 1007.2 |
| 20260506083759 | 66 | 197 | 3.0 | 3.0 | 0.00 | 0.00 | 0.00 | 55 | 1007.5 |
| 20260506083257 | 66 | 285 | 1.0 | 1.0 | 0.00 | 0.00 | 0.00 | 55 | 1007.6 |
| 20260506082754 | 66 | 238 | 3.0 | 3.0 | 0.00 | 0.00 | 0.00 | 55 | 1007.6 |
| 20260506082249 | 67 | 4 | 0.0 | 1.0 | 0.00 | 0.00 | 0.00 | 54 | 1007.6 |
| 20260506081747 | 67 | 231 | 3.0 | 5.0 | 0.00 | 0.00 | 0.00 | 53 | 1007.4 |
| 20260506081245 | 67 | 100 | 0.0 | 0.0 | 0.00 | 0.00 | 0.00 | 54 | 1007.3 |
| 20260506080743 | 67 | 243 | 3.0 | 3.0 | 0.00 | 0.00 | 0.00 | 52 | 1007.3 |
| 20260506080239 | 67 | 235 | 3.0 | 3.0 | 0.00 | 0.00 | 0.00 | 52 | 1007.4 |
| 20260506073223 | 67 | 326 | 0.0 | 0.0 | 0.00 | 0.00 | 0.00 | 50 | 1007.6 |
| 20260506072720 | 68 | 172 | 2.0 | 3.0 | 0.00 | 0.00 | 0.00 | 50 | 1007.4 |
| 20260506072217 | 68 | 245 | 3.0 | 3.0 | 0.00 | 0.00 | 0.00 | 50 | 1007.6 |
| 20260506071715 | 68 | 218 | 2.0 | 2.0 | 0.00 | 0.00 | 0.00 | 49 | 1007.7 |
| 20260506071213 | 68 | 249 | 3.0 | 3.0 | 0.00 | 0.00 | 0.00 | 49 | 1007.7 |
| 20260506070709 | 68 | 345 | 0.0 | 0.0 | 0.00 | 0.00 | 0.00 | 49 | 1007.7 |
| 20260506070206 | 68 | 212 | 4.0 | 5.0 | 0.00 | 0.00 | 0.00 | 49 | 1007.6 |
| 20260506062143 | 67 | 209 | 2.0 | 2.0 | 0.00 | 0.00 | 0.00 | 49 | 1008.0 |
| 20260506061639 | 66 | 291 | 1.0 | 5.0 | 0.00 | 0.00 | 0.00 | 49 | 1007.9 |
| 20260506061137 | 64 | 165 | 3.0 | 5.0 | 0.00 | 0.00 | 0.00 | 53 | 1007.8 |
| 20260506060635 | 64 | 62 | 0.0 | 0.0 | 0.00 | 0.00 | 0.00 | 54 | 1008.0 |
| 20260506060132 | 64 | 66 | 1.0 | 1.0 | 0.00 | 0.00 | 0.00 | 55 | 1008.1 |
| 20260506051104 | 67 | 286 | 1.0 | 3.0 | 0.00 | 0.00 | 0.00 | 47 | 1008.7 |
| 20260506050602 | 68 | 306 | 1.0 | 1.0 | 0.00 | 0.00 | 0.00 | 47 | 1008.6 |
| 20260506045052 | 68 | 69 | 1.0 | 1.0 | 0.00 | 0.00 | 0.00 | 47 | 1008.5 |
| 20260506044550 | 68 | 340 | 1.0 | 2.0 | 0.00 | 0.00 | 0.00 | 47 | 1008.5 |
| 20260506044046 | 68 | 221 | 1.0 | 2.0 | 0.00 | 0.00 | 0.00 | 47 | 1008.3 |
| 20260506043543 | 68 | 185 | 3.0 | 5.0 | 0.00 | 0.00 | 0.00 | 46 | 1008.7 |
| 20260506043042 | 68 | 317 | 2.0 | 2.0 | 0.00 | 0.00 | 0.00 | 45 | 1008.6 |
| 20260506042541 | 68 | 144 | 0.0 | 1.0 | 0.00 | 0.00 | 0.00 | 47 | 1008.8 |
| 20260506042038 | 68 | 236 | 1.0 | 2.0 | 0.00 | 0.00 | 0.00 | 45 | 1008.7 |
| 20260506041537 | 68 | 227 | 1.0 | 1.0 | 0.00 | 0.00 | 0.00 | 47 | 1009.0 |
| 20260506041033 | 68 | 187 | 3.0 | 3.0 | 0.00 | 0.00 | 0.00 | 48 | 1008.7 |
| 20260506040531 | 68 | 228 | 2.0 | 3.0 | 0.00 | 0.00 | 0.00 | 47 | 1008.6 |
| 20260506040027 | 68 | 60 | 1.0 | 1.0 | 0.00 | 0.01 | 0.01 | 48 | 1008.8 |
| 20260506035524 | 69 | 175 | 2.0 | 2.0 | 0.00 | 0.01 | 0.01 | 46 | 1008.9 |
| 20260506035021 | 69 | 199 | 0.0 | 1.0 | 0.00 | 0.01 | 0.01 | 45 | 1008.7 |
| 20260506034518 | 70 | 154 | 2.0 | 2.0 | 0.00 | 0.01 | 0.01 | 45 | 1008.8 |
| 20260506034015 | 70 | 192 | 3.0 | 3.0 | 0.00 | 0.01 | 0.01 | 44 | 1008.7 |
| 20260506033512 | 70 | 166 | 3.0 | 5.0 | 0.00 | 0.01 | 0.01 | 44 | 1008.8 |
| 20260506033009 | 70 | 273 | 3.0 | 6.0 | 0.00 | 0.01 | 0.01 | 45 | 1008.8 |
| 20260506032507 | 70 | 205 | 3.0 | 5.0 | 0.00 | 0.01 | 0.01 | 45 | 1008.9 |
| 20260506032003 | 70 | 240 | 2.0 | 3.0 | 0.00 | 0.01 | 0.01 | 44 | 1008.8 |
| 20260506031501 | 71 | 155 | 2.0 | 2.0 | 0.00 | 0.01 | 0.01 | 45 | 1008.7 |
| 20260506030958 | 71 | 244 | 2.0 | 2.0 | 0.00 | 0.01 | 0.01 | 44 | 1008.7 |
| 20260506030456 | 71 | 216 | 4.0 | 5.0 | 0.00 | 0.01 | 0.01 | 44 | 1008.6 |
| 20260506025952 | 71 | 247 | 2.0 | 3.0 | 0.00 | 0.01 | 0.01 | 45 | 1008.7 |
| 20260506025449 | 71 | 213 | 2.0 | 3.0 | 0.00 | 0.01 | 0.01 | 45 | 1008.7 |
| 20260506024946 | 70 | 187 | 3.0 | 5.0 | 0.00 | 0.01 | 0.01 | 45 | 1008.8 |
| 20260506024443 | 69 | 153 | 2.0 | 2.0 | 0.00 | 0.01 | 0.01 | 47 | 1008.7 |
| 20260506023938 | 66 | 252 | 0.0 | 1.0 | 0.00 | 0.01 | 0.01 | 53 | 1008.6 |
| 20260506023435 | 63 | 65 | 0.0 | 0.0 | 0.00 | 0.01 | 0.01 | 63 | 1008.7 |
| 20260506022932 | 63 | 65 | 0.0 | 0.0 | 0.00 | 0.01 | 0.01 | 64 | 1008.8 |
| 20260506022430 | 64 | 64 | 0.0 | 0.0 | 0.00 | 0.01 | 0.01 | 63 | 1008.7 |
| 20260506021928 | 64 | 66 | 1.0 | 1.0 | 0.00 | 0.01 | 0.01 | 62 | 1008.6 |
| 20260506021425 | 65 | 57 | 0.0 | 0.0 | 0.00 | 0.01 | 0.01 | 60 | 1008.8 |
| 20260506020922 | 65 | 67 | 0.0 | 1.0 | 0.00 | 0.01 | 0.01 | 59 | 1008.9 |
| 20260506020420 | 66 | 73 | 1.0 | 1.0 | 0.00 | 0.01 | 0.01 | 57 | 1008.8 |
| 20260506015916 | 67 | 97 | 1.0 | 1.0 | 0.00 | 0.01 | 0.01 | 55 | 1008.7 |
| 20260506015414 | 68 | 85 | 1.0 | 1.0 | 0.00 | 0.01 | 0.01 | 55 | 1008.8 |
| 20260506014910 | 68 | 73 | 1.0 | 1.0 | 0.00 | 0.01 | 0.01 | 54 | 1008.8 |
| 20260506014408 | 68 | 72 | 0.0 | 0.0 | 0.00 | 0.01 | 0.01 | 52 | 1008.8 |
| 20260506013904 | 68 | 70 | 0.0 | 0.0 | 0.00 | 0.01 | 0.01 | 53 | 1008.7 |
| 20260506013402 | 68 | 93 | 1.0 | 1.0 | 0.00 | 0.01 | 0.01 | 52 | 1008.6 |
| 20260506012858 | 67 | 80 | 1.0 | 1.0 | 0.00 | 0.01 | 0.01 | 55 | 1008.5 |
| 20260506012355 | 67 | 55 | 0.0 | 0.0 | 0.00 | 0.01 | 0.01 | 55 | 1008.6 |
| 20260506011852 | 68 | 41 | 0.0 | 0.0 | 0.00 | 0.01 | 0.01 | 55 | 1008.3 |
| 20260506011349 | 68 | 56 | 0.0 | 0.0 | 0.00 | 0.01 | 0.01 | 53 | 1008.3 |
| 20260506010846 | 68 | 52 | 0.0 | 0.0 | 0.00 | 0.01 | 0.01 | 53 | 1008.1 |